Weather History for Logansport, IN

Change the Weather History Date:

Wednesday, January 22, 2014

  Actual Average Record
Temperature  
Mean Temperature 5 °F -  
Max Temperature 17 °F 34 °F 17 °F (2014)
Min Temperature -7 °F 15 °F -7 °F (2014)
Degree Days  
Heating Degree Days 60    
Moisture  
Dew Point 0 °F    
Average Humidity 79    
Maximum Humidity 93    
Minimum Humidity 62    
Precipitation  
Precipitation 0.00 in - - ()
Sea Level Pressure  
Sea Level Pressure 30.05 in    
Wind  
Wind Speed 7 mph (SW)    
Max Wind Speed 17 mph    
Max Gust Speed 24 mph    
Visibility 8 miles    
Events Snow    
Averages and records for this station are not official NWS values.
T = Trace of Precipitation, MM = Missing Value Source: NWS Daily Summary

Daily Weather History Graph

Daily Weather History Graph

Search for Another Location

Airport:

Trip Planner

Search our weather history database for the weather conditions in past years. The results will help you decide how hot, cold, wet, or windy it might be!

Date:

Astronomy

Jan. 22, 2014 Rise Set
Actual Time 8:03 AM EST 5:51 PM EST
Civil Twilight 7:33 AM EST 6:20 PM EST
Nautical Twilight 7:00 AM EST 6:54 PM EST
Astronomical Twilight 6:28 AM EST 7:26 PM EST
Moon No Moon Rise 11:02 AM EST (1/22)
Length of Visible Light 10h 46m
Length of Day
9h 47m
Waning Gibbous, 65% of the Moon is Illuminated
Jan 22
Waning Gibbous
Jan 24
Last Quarter
Jan 30
New
Feb 6
First Quarter
Feb 14
Full

Hourly Weather History & Observations

Time (EST) Temp. Windchill Dew Point Humidity Pressure Visibility Wind Dir Wind Speed Gust Speed Precip Events Conditions
12:15 AM -4.0 °F -12.4 °F -7.6 °F 85% 30.20 in 10.0 mi South 3.5 mph - N/A   Clear
12:35 AM -4.0 °F - -7.6 °F 85% 30.20 in 10.0 mi Calm Calm - N/A   Clear
12:55 AM -4.0 °F -14.6 °F -7.6 °F 85% 30.20 in 10.0 mi South 4.6 mph - N/A   Clear
1:15 AM -4.0 °F -12.4 °F -7.6 °F 85% 30.20 in 10.0 mi South 3.5 mph - N/A   Clear
1:35 AM -4.0 °F -14.6 °F -7.6 °F 85% 30.20 in 10.0 mi SW 4.6 mph - N/A   Clear
1:55 AM -4.0 °F -14.6 °F -9.4 °F 78% 30.20 in 10.0 mi SW 4.6 mph - N/A   Clear
2:15 AM -5.8 °F -16.7 °F -9.4 °F 84% 30.20 in 10.0 mi SW 4.6 mph - N/A   Clear
2:35 AM -4.0 °F -14.6 °F -7.6 °F 85% 30.19 in 10.0 mi SSW 4.6 mph - N/A   Clear
2:55 AM -4.0 °F -14.6 °F -9.4 °F 78% 30.19 in 10.0 mi SW 4.6 mph - N/A   Clear
3:15 AM -5.8 °F -14.5 °F -9.4 °F 84% 30.18 in 10.0 mi SW 3.5 mph - N/A   Clear
3:35 AM -4.0 °F -14.6 °F -7.6 °F 85% 30.17 in 10.0 mi SSW 4.6 mph - N/A   Clear
3:55 AM -4.0 °F - -7.6 °F 85% 30.16 in 10.0 mi Calm Calm - N/A   Clear
4:15 AM -5.8 °F - -9.4 °F 84% 30.15 in 10.0 mi Calm Calm - N/A   Clear
4:55 AM -5.8 °F -16.7 °F -9.4 °F 84% 30.13 in 10.0 mi SSE 4.6 mph - N/A   Clear
5:15 AM -5.8 °F -14.5 °F -9.4 °F 84% 30.13 in 10.0 mi South 3.5 mph - N/A   Clear
5:35 AM -5.8 °F -14.5 °F -9.4 °F 84% 30.12 in 10.0 mi South 3.5 mph - N/A   Clear
5:55 AM -5.8 °F -18.4 °F -9.4 °F 84% 30.11 in 10.0 mi SSE 5.8 mph - N/A   Clear
6:15 AM -7.6 °F -20.6 °F -13.0 °F 77% 30.10 in 10.0 mi SSE 5.8 mph - N/A   Scattered Clouds
6:35 AM -5.8 °F - -11.2 °F 77% 30.11 in 10.0 mi Calm Calm - N/A   Scattered Clouds
6:55 AM -4.0 °F -12.4 °F -7.6 °F 85% 30.11 in 10.0 mi SSE 3.5 mph - N/A   Mostly Cloudy
7:15 AM -0.4 °F -10.4 °F -5.8 °F 78% 30.11 in 10.0 mi South 4.6 mph - N/A   Overcast
7:35 AM -0.4 °F -10.4 °F -5.8 °F 78% 30.09 in 10.0 mi SSE 4.6 mph - N/A   Overcast
7:55 AM -0.4 °F -13.4 °F -4.0 °F 85% 30.08 in 10.0 mi North 6.9 mph - N/A   Overcast
8:15 AM 1.4 °F -12.5 °F -4.0 °F 78% 30.07 in 10.0 mi SE 8.1 mph - N/A   Overcast
8:35 AM 3.2 °F -11.3 °F -2.2 °F 78% 30.07 in 10.0 mi South 9.2 mph - N/A   Overcast
8:55 AM 3.2 °F -10.3 °F -0.4 °F 85% 30.08 in 10.0 mi SW 8.1 mph - N/A   Overcast
9:15 AM 3.2 °F -12.2 °F -0.4 °F 85% 30.08 in 10.0 mi SSW 10.4 mph - N/A   Overcast
9:35 AM 5.0 °F -10.0 °F -0.4 °F 78% 30.08 in 10.0 mi SSW 10.4 mph - N/A   Overcast
9:55 AM 5.0 °F -10.0 °F 1.4 °F 85% 30.08 in 10.0 mi South 10.4 mph - N/A   Overcast
10:15 AM 6.8 °F -8.6 °F 1.4 °F 79% 30.07 in 10.0 mi South 11.5 mph - N/A   Overcast
10:35 AM 6.8 °F -8.6 °F 1.4 °F 79% 30.07 in 10.0 mi SSW 11.5 mph - N/A   Overcast
10:55 AM 8.6 °F -7.7 °F 1.4 °F 73% 30.07 in 10.0 mi South 13.8 mph - N/A   Overcast
11:15 AM 8.6 °F -8.3 °F 3.2 °F 79% 30.05 in 10.0 mi South 15.0 mph - N/A   Overcast
11:35 AM 10.4 °F -5.4 °F 3.2 °F 73% 30.05 in 10.0 mi SSW 13.8 mph - N/A   Overcast
11:55 AM 10.4 °F -4.8 °F 3.2 °F 73% 30.04 in 10.0 mi SSW 12.7 mph - N/A   Overcast
12:15 PM 10.4 °F -5.4 °F 3.2 °F 73% 30.02 in 10.0 mi SSW 13.8 mph - N/A   Overcast
12:35 PM 10.4 °F -5.4 °F 3.2 °F 73% 30.01 in 10.0 mi WSW 13.8 mph - N/A   Overcast
12:55 PM 10.4 °F -5.4 °F 1.4 °F 67% 29.99 in 10.0 mi SSW 13.8 mph - N/A   Overcast
1:15 PM 12.2 °F -4.3 °F 1.4 °F 62% 29.98 in 5.0 mi SSW 16.1 mph - N/A Snow Light Snow
1:35 PM 10.4 °F -4.8 °F 3.2 °F 73% 29.97 in 2.5 mi SSW 12.7 mph - N/A Snow Light Snow
1:55 PM 12.2 °F -3.1 °F 5.0 °F 73% 29.96 in 4.0 mi SW 13.8 mph 17.3 mph N/A Snow Light Snow
2:15 PM 12.2 °F -1.8 °F 5.0 °F 73% 29.96 in 4.0 mi SW 11.5 mph - N/A Snow Light Snow
2:35 PM 12.2 °F -1.8 °F 5.0 °F 73% 29.94 in 4.0 mi SSW 11.5 mph 17.3 mph N/A Snow Light Snow
2:55 PM 12.2 °F -3.1 °F 5.0 °F 73% 29.93 in 3.0 mi SW 13.8 mph 17.3 mph N/A Snow Light Snow
3:15 PM 12.2 °F -2.5 °F 5.0 °F 73% 29.94 in 3.0 mi SW 12.7 mph 18.4 mph N/A Snow Light Snow
3:35 PM 12.2 °F -3.1 °F 6.8 °F 79% 29.94 in 3.0 mi SW 13.8 mph - N/A Snow Light Snow
3:55 PM 12.2 °F -3.1 °F 8.6 °F 85% 29.95 in 3.0 mi SW 13.8 mph - N/A Snow Light Snow
4:15 PM 12.2 °F -3.7 °F 8.6 °F 85% 29.95 in 5.0 mi WSW 15.0 mph - N/A Snow Light Snow
4:35 PM 14.0 °F -0.2 °F 8.6 °F 79% 29.95 in 7.0 mi SW 12.7 mph - N/A Snow Light Snow
4:55 PM 14.0 °F -0.2 °F 8.6 °F 79% 29.94 in 3.0 mi SW 12.7 mph - N/A Snow Light Snow
5:15 PM 14.0 °F -0.2 °F 8.6 °F 79% 29.94 in 2.5 mi SSW 12.7 mph - N/A Snow Light Snow
5:35 PM 14.0 °F 1.2 °F 10.4 °F 86% 29.94 in 5.0 mi SW 10.4 mph - N/A Snow Light Snow
5:55 PM 14.0 °F 1.2 °F 10.4 °F 86% 29.95 in 2.0 mi SW 10.4 mph - N/A Snow Light Snow
6:15 PM 14.0 °F 0.5 °F 10.4 °F 86% 29.95 in 1.2 mi SW 11.5 mph - N/A Snow Light Snow
6:35 PM 14.0 °F 0.5 °F 12.2 °F 93% 29.96 in 2.5 mi SW 11.5 mph - N/A Snow Light Snow
6:55 PM 15.8 °F 2.1 °F 12.2 °F 86% 29.96 in 1.5 mi SSW 12.7 mph - N/A Snow Light Snow
7:15 PM 15.8 °F 2.7 °F 12.2 °F 86% 29.96 in 0.8 mi WSW 11.5 mph - N/A Snow Light Snow
7:35 PM 17.6 °F 2.7 °F 12.2 °F 79% 29.96 in 1.8 mi West 16.1 mph 21.9 mph N/A Snow Light Snow
7:55 PM 15.8 °F 0.3 °F 10.4 °F 79% 29.97 in 2.0 mi WNW 16.1 mph 24.2 mph N/A Snow Light Snow
8:15 PM 14.0 °F -2.5 °F 8.6 °F 79% 29.98 in 3.0 mi WNW 17.3 mph 24.2 mph N/A Snow Light Snow
8:35 PM 12.2 °F -2.5 °F 5.0 °F 73% 29.99 in 5.0 mi WNW 12.7 mph 24.2 mph N/A   Haze
8:55 PM 12.2 °F -3.7 °F 5.0 °F 73% 30.00 in 5.0 mi WNW 15.0 mph 23.0 mph N/A   Haze
9:15 PM 10.4 °F -4.8 °F 5.0 °F 79% 30.01 in 5.0 mi WNW 12.7 mph 21.9 mph N/A   Haze
9:35 PM 10.4 °F -4.8 °F 3.2 °F 73% 30.03 in 7.0 mi WNW 12.7 mph 20.7 mph N/A   Overcast
9:55 PM 10.4 °F -6.0 °F 3.2 °F 73% 30.03 in 10.0 mi WNW 15.0 mph 23.0 mph N/A   Mostly Cloudy
10:15 PM 8.6 °F -7.0 °F 1.4 °F 73% 30.04 in 10.0 mi WNW 12.7 mph 19.6 mph N/A   Scattered Clouds
10:35 PM 8.6 °F -7.0 °F 1.4 °F 73% 30.05 in 10.0 mi WNW 12.7 mph 19.6 mph N/A   Clear
10:55 PM 8.6 °F -7.0 °F 1.4 °F 73% 30.06 in 10.0 mi WNW 12.7 mph - N/A   Clear
11:15 PM 8.6 °F -7.0 °F -0.4 °F 67% 30.06 in 10.0 mi WNW 12.7 mph 18.4 mph N/A   Clear
11:35 PM 8.6 °F -6.3 °F -0.4 °F 67% 30.07 in 10.0 mi WNW 11.5 mph 18.4 mph N/A   Clear
11:55 PM 6.8 °F -5.9 °F -0.4 °F 72% 30.08 in 10.0 mi WNW 8.1 mph - N/A   Clear